Location: La Brionne
(46.1728°N, 1.7849°E)
Time: 07:57:41
(UTC+00:00)

FALCON 9 DEB - Pass Details

Date: 16 June 2021
Orbit: 422 x 432 km, 53.0° (Epoch: 31 July)

Event Time Altitude Azimuth Distance (km) Brightness Sun altitude
Rises 21:15:10 0° 226° (SW) 2,390 6.8 -11.7°
Reaches altitude 10° 21:17:17 10° 221° (SW) 1,525 5.8 -11.9°
Maximum altitude 21:20:38 54° 144° (SE) 530 3.2 -12.3°
Drops below altitude 10° 21:23:59 10° 66° (ENE) 1,526 5.8 -12.6°
Sets 21:26:07 0° 62° (ENE) 2,393 6.8 -12.8°
